TimeCST,TemperatureF,Dew PointF,Humidity,Sea Level PressureIn,VisibilityMPH,Wind Direction,Wind SpeedMPH,Gust SpeedMPH,PrecipitationIn,Events,Conditions,WindDirDegrees,DateUTC
12:15 AM,10.4,-8.5,42,30.23,10.0,South,8.1,-,N/A,,Clear,190,2014-01-29 06:15:00
12:35 AM,10.4,-7.8,44,30.23,10.0,South,6.9,-,N/A,,Clear,190,2014-01-29 06:35:00
12:55 AM,7.7,-8.0,49,30.22,10.0,South,6.9,-,N/A,,Clear,190,2014-01-29 06:55:00
1:15 AM,9.1,-6.9,48,30.21,10.0,South,3.5,-,N/A,,Clear,170,2014-01-29 07:15:00
1:35 AM,8.1,-7.6,49,30.21,10.0,SSE,3.5,-,N/A,,Clear,160,2014-01-29 07:35:00
1:55 AM,6.8,-7.8,51,30.20,10.0,South,3.5,-,N/A,,Clear,180,2014-01-29 07:55:00
2:15 AM,7.5,-6.9,52,30.20,10.0,South,4.6,-,N/A,,Clear,190,2014-01-29 08:15:00
2:35 AM,7.5,-6.9,52,30.19,10.0,SSE,3.5,-,N/A,,Clear,160,2014-01-29 08:35:00
2:55 AM,5.7,-6.7,57,30.18,10.0,South,4.6,-,N/A,,Clear,180,2014-01-29 08:55:00
3:15 AM,6.8,-5.8,56,30.18,10.0,South,3.5,-,N/A,,Clear,170,2014-01-29 09:15:00
3:35 AM,6.4,-5.4,58,30.17,10.0,South,4.6,-,N/A,,Clear,180,2014-01-29 09:35:00
3:55 AM,9.1,-3.1,58,30.16,10.0,SSW,5.8,-,N/A,,Clear,200,2014-01-29 09:55:00
4:15 AM,7.7,-4.7,57,30.14,10.0,South,3.5,-,N/A,,Clear,170,2014-01-29 10:15:00
4:35 AM,6.3,-5.3,59,30.14,10.0,SSE,4.6,-,N/A,,Clear,160,2014-01-29 10:35:00
4:55 AM,5.0,-5.3,63,30.13,10.0,South,5.8,-,N/A,,Clear,170,2014-01-29 10:55:00
5:15 AM,4.8,-5.1,64,30.12,10.0,SSE,6.9,-,N/A,,Clear,160,2014-01-29 11:15:00
5:35 AM,4.8,-4.4,66,30.11,10.0,South,6.9,-,N/A,,Clear,170,2014-01-29 11:35:00
5:55 AM,5.2,-4.4,65,30.11,10.0,SSE,6.9,-,N/A,,Clear,160,2014-01-29 11:55:00
6:15 AM,5.7,-3.6,65,30.10,10.0,SSE,5.8,-,N/A,,Clear,160,2014-01-29 12:15:00
6:35 AM,5.7,-3.3,66,30.10,10.0,South,5.8,-,N/A,,Clear,170,2014-01-29 12:35:00
6:55 AM,6.6,-2.6,66,30.10,10.0,SSE,6.9,-,N/A,,Clear,150,2014-01-29 12:55:00
7:15 AM,6.6,-2.4,67,30.10,10.0,SSE,6.9,-,N/A,,Clear,160,2014-01-29 13:15:00
7:35 AM,5.9,-2.7,68,30.09,10.0,SSE,8.1,-,N/A,,Clear,150,2014-01-29 13:35:00
7:55 AM,6.1,-2.2,69,30.09,10.0,SSE,8.1,-,N/A,,Clear,160,2014-01-29 13:55:00
8:15 AM,7.7,-1.3,67,30.08,10.0,SSE,9.2,-,N/A,,Clear,160,2014-01-29 14:15:00
8:35 AM,9.5,-0.0,65,30.07,10.0,SSE,11.5,-,N/A,,Clear,160,2014-01-29 14:35:00
8:55 AM,11.7,1.6,64,30.08,10.0,South,13.8,-,N/A,,Clear,170,2014-01-29 14:55:00
9:15 AM,14.0,3.0,62,30.08,10.0,South,15.0,-,N/A,,Clear,180,2014-01-29 15:15:00
9:35 AM,16.3,3.9,58,30.06,10.0,South,13.8,-,N/A,,Clear,180,2014-01-29 15:35:00
9:55 AM,18.3,4.6,55,30.06,10.0,South,13.8,-,N/A,,Clear,190,2014-01-29 15:55:00
10:15 AM,21.2,6.4,53,30.06,10.0,South,16.1,-,N/A,,Clear,180,2014-01-29 16:15:00
10:35 AM,23.9,7.5,50,30.06,10.0,South,17.3,23.0,N/A,,Clear,190,2014-01-29 16:35:00
10:55 AM,26.8,7.9,45,30.06,10.0,South,17.3,-,N/A,,Clear,180,2014-01-29 16:55:00
11:15 AM,29.3,8.2,41,30.04,10.0,South,16.1,-,N/A,,Clear,180,2014-01-29 17:15:00
11:35 AM,32.2,8.8,38,30.03,10.0,South,16.1,20.7,N/A,,Clear,180,2014-01-29 17:35:00
11:55 AM,34.2,9.1,35,30.01,10.0,South,19.6,25.3,N/A,,Clear,180,2014-01-29 17:55:00
12:15 PM,36.9,8.8,31,29.99,10.0,SSW,17.3,24.2,N/A,,Clear,200,2014-01-29 18:15:00
12:35 PM,39.6,9.1,29,29.97,10.0,South,20.7,26.5,N/A,,Clear,180,2014-01-29 18:35:00
12:55 PM,40.1,8.4,27,29.95,10.0,SSW,23.0,28.8,N/A,,Clear,200,2014-01-29 18:55:00
1:15 PM,41.0,7.7,25,29.94,10.0,South,19.6,32.2,N/A,,Clear,190,2014-01-29 19:15:00
1:35 PM,41.9,6.6,23,29.93,10.0,South,20.7,28.8,N/A,,Clear,190,2014-01-29 19:35:00
1:55 PM,43.0,6.8,23,29.91,10.0,South,20.7,28.8,N/A,,Clear,190,2014-01-29 19:55:00
2:15 PM,43.9,6.4,22,29.89,10.0,South,21.9,27.6,N/A,,Clear,190,2014-01-29 20:15:00
2:35 PM,44.6,5.7,20,29.88,10.0,South,17.3,29.9,N/A,,Clear,180,2014-01-29 20:35:00
2:55 PM,44.6,5.7,20,29.87,10.0,South,24.2,29.9,N/A,,Clear,190,2014-01-29 20:55:00
3:15 PM,45.1,5.5,20,29.85,10.0,South,25.3,29.9,N/A,,Clear,180,2014-01-29 21:15:00
3:35 PM,44.8,5.4,20,29.84,10.0,South,21.9,28.8,N/A,,Clear,190,2014-01-29 21:35:00
3:55 PM,45.5,5.5,19,29.84,10.0,South,21.9,25.3,N/A,,Clear,180,2014-01-29 21:55:00
4:15 PM,45.0,5.2,20,29.82,10.0,South,23.0,28.8,N/A,,Clear,180,2014-01-29 22:15:00
4:35 PM,44.8,5.0,20,29.81,10.0,South,23.0,-,N/A,,Clear,180,2014-01-29 22:35:00
4:55 PM,44.1,5.0,20,29.81,10.0,South,19.6,24.2,N/A,,Clear,180,2014-01-29 22:55:00
5:15 PM,42.4,5.5,22,29.80,10.0,South,16.1,-,N/A,,Clear,180,2014-01-29 23:15:00
5:35 PM,40.5,5.5,24,29.80,10.0,South,15.0,-,N/A,,Clear,180,2014-01-29 23:35:00
5:55 PM,38.8,5.5,25,29.79,10.0,South,15.0,-,N/A,,Clear,170,2014-01-29 23:55:00
6:15 PM,38.3,6.1,26,29.77,10.0,South,13.8,-,N/A,,Clear,170,2014-01-30 00:15:00
6:35 PM,38.7,6.4,26,29.76,10.0,South,16.1,-,N/A,,Clear,170,2014-01-30 00:35:00
6:55 PM,37.8,6.3,27,29.76,10.0,South,16.1,-,N/A,,Clear,170,2014-01-30 00:55:00
7:15 PM,36.5,5.9,28,29.76,10.0,South,16.1,-,N/A,,Clear,170,2014-01-30 01:15:00
7:35 PM,35.1,5.5,29,29.74,10.0,South,16.1,21.9,N/A,,Clear,180,2014-01-30 01:35:00
7:55 PM,35.8,5.9,29,29.74,10.0,South,16.1,-,N/A,,Clear,180,2014-01-30 01:55:00
8:15 PM,34.3,6.3,31,29.74,10.0,South,16.1,-,N/A,,Clear,180,2014-01-30 02:15:00
8:35 PM,34.0,6.6,32,29.72,10.0,South,16.1,-,N/A,,Clear,170,2014-01-30 02:35:00
8:55 PM,35.6,6.8,30,29.72,10.0,South,18.4,-,N/A,,Clear,170,2014-01-30 02:55:00
9:15 PM,35.1,6.8,31,29.70,10.0,South,17.3,-,N/A,,Clear,170,2014-01-30 03:15:00
9:35 PM,34.9,7.3,32,29.70,10.0,South,18.4,-,N/A,,Clear,180,2014-01-30 03:35:00
9:55 PM,34.9,7.3,32,29.69,10.0,South,19.6,-,N/A,,Clear,180,2014-01-30 03:55:00
10:15 PM,35.1,7.2,31,29.68,10.0,South,20.7,-,N/A,,Clear,180,2014-01-30 04:15:00
10:35 PM,35.8,6.8,30,29.67,10.0,South,19.6,-,N/A,,Clear,180,2014-01-30 04:35:00
10:55 PM,36.0,6.4,29,29.66,10.0,South,20.7,-,N/A,,Clear,180,2014-01-30 04:55:00
11:15 PM,36.5,5.5,27,29.64,10.0,South,19.6,-,N/A,,Clear,170,2014-01-30 05:15:00
11:35 PM,36.1,5.0,27,29.64,10.0,South,21.9,27.6,N/A,,Clear,170,2014-01-30 05:35:00
11:55 PM,36.3,4.8,27,29.62,10.0,South,23.0,28.8,N/A,,Clear,170,2014-01-30 05:55:00